CDT,Max TemperatureF,Mean TemperatureF,Min TemperatureF,Max Dew PointF,MeanDew PointF,Min DewpointF,Max Humidity, Mean Humidity, Min Humidity, Max Sea Level PressureIn, Mean Sea Level PressureIn, Min Sea Level PressureIn, Max VisibilityMiles, Mean VisibilityMiles, Min VisibilityMiles, Max Wind SpeedMPH, Mean Wind SpeedMPH, Max Gust SpeedMPH,PrecipitationIn, CloudCover, Events, WindDirDegrees
2014-4-1,53,38,23,32,27,21,100,68,41,30.07,29.96,29.83,10,10,10,23,8,29,0.00,0,,93
2014-4-2,53,42,32,36,31,27,93,72,51,29.86,29.78,29.68,10,10,7,20,14,25,0.00,4,,72
2014-4-3,35,34,30,36,34,30,100,100,93,30.06,29.83,29.72,10,4,0,20,14,28,0.00,7,Rain-Snow,342
2014-4-4,55,39,23,36,31,23,100,76,41,30.15,30.07,29.99,10,10,10,16,8,16,0.00,1,,254
2014-4-5,60,48,35,43,34,30,87,62,34,30.03,29.92,29.85,10,10,10,28,16,36,0.00,0,,184
2014-4-6,62,48,35,45,40,36,100,76,39,29.93,29.85,29.75,10,10,4,20,11,26,0.00,3,Rain,186
2014-4-7,57,44,32,43,35,30,100,74,38,30.14,29.99,29.84,10,10,2,39,15,48,0.00,2,,324
2014-4-8,66,47,28,36,31,27,100,61,30,30.17,30.12,30.07,10,10,10,16,9,24,0.00,0,,311
2014-4-9,86,60,33,37,33,30,93,42,14,30.08,29.91,29.77,10,10,10,23,12,30,0.00,0,,237
2014-4-10,64,55,46,37,36,30,71,48,34,30.07,29.96,29.76,10,10,10,33,12,39,0.00,0,,43
2014-4-11,78,58,37,43,38,34,87,49,24,30.08,29.95,29.78,10,10,10,25,10,32,0.00,0,,174
2014-4-12,80,60,41,46,41,36,93,52,20,29.77,29.66,29.59,10,10,10,22,11,22,0.00,0,,354
2014-4-13,60,45,30,39,34,28,100,86,45,30.13,29.83,29.61,10,7,1,36,24,40,0.00,7,Rain-Snow,360
2014-4-14,44,36,28,30,25,19,100,71,39,30.30,30.22,30.13,10,10,4,25,17,32,0.00,4,Snow,316
2014-4-15,66,45,24,30,26,21,93,54,23,30.20,29.96,29.70,10,10,10,24,12,31,0.00,0,,212
2014-4-16,60,48,35,37,33,23,81,55,36,30.14,29.82,29.62,10,10,10,41,18,50,0.00,1,,330
2014-4-17,59,46,32,41,35,32,100,80,44,30.31,30.20,30.14,10,10,5,16,10,25,0.00,4,,123
2014-4-18,71,53,35,45,42,36,100,68,38,30.17,30.05,29.94,10,9,5,30,17,37,0.00,0,,176
2014-4-19,71,61,51,52,49,45,88,67,46,30.04,29.94,29.87,10,10,10,24,16,31,0.00,1,Rain,44
2014-4-20,77,62,46,55,52,46,100,77,41,30.01,29.97,29.91,10,9,5,17,7,24,0.00,2,,116
2014-4-21,71,58,44,52,38,32,100,55,23,30.23,30.14,29.99,10,9,0,22,9,29,0.00,1,Fog,37
2014-4-22,78,60,42,54,39,32,68,46,28,30.20,29.99,29.77,10,10,10,34,16,44,0.00,0,,155
2014-4-23,86,70,53,50,45,32,72,47,18,29.77,29.61,29.47,10,10,5,32,22,43,0.00,1,Rain,197
2014-4-24,69,56,44,39,30,23,71,37,17,29.95,29.88,29.77,10,10,4,32,17,43,0.00,2,Rain,305
2014-4-25,77,57,37,37,32,25,70,41,19,29.91,29.84,29.71,10,10,10,15,8,18,0.00,0,,167
2014-4-26,87,66,46,45,37,32,87,40,14,29.70,29.47,29.30,10,10,10,26,14,34,0.00,0,,171
2014-4-27,71,56,41,45,34,27,100,50,23,29.43,29.24,29.11,10,9,2,43,15,51,0.00,3,Rain,181
2014-4-28,55,47,39,41,37,32,100,71,41,29.74,29.56,29.44,10,10,4,45,29,59,0.00,6,Rain,317
2014-4-29,46,40,35,41,35,30,100,80,53,30.14,29.91,29.75,10,9,3,46,30,60,0.00,8,Rain,333
2014-4-30,55,44,32,34,29,25,100,62,33,30.19,30.16,30.09,10,10,10,32,20,41,0.00,5,,327